• En Colombia
  • Lista de países
  • Para 7 días
  • Temperatura del agua
  • El tiempo en el mapa
  • Informadores
  • user-avatar
    Iniciar sesión

    Tiempo cada hora Oran

    Hoy, 27 Febrero, Jueves

    Tiempo Temperatura Precipitaciones Viento Presión Humedad
    00:00 +11°C° 0 mm 4 mps 755 mmHg 82%
    01:00 +11°C° 0 mm 4 mps 755 mmHg 81%
    02:00 +11°C° 0 mm 4 mps 754 mmHg 79%
    03:00 +11°C° 0 mm 3 mps 754 mmHg 77%
    04:00 +10°C° 0 mm 3 mps 754 mmHg 76%
    05:00 +10°C° 0 mm 3 mps 755 mmHg 75%
    06:00 +10°C° 0 mm 2 mps 755 mmHg 74%
    07:00 +13°C° 0 mm 2 mps 755 mmHg 66%
    08:00 +14°C° 0 mm 3 mps 756 mmHg 57%
    09:00 +17°C° 0 mm 3 mps 756 mmHg 49%
    10:00 +19°C° 0 mm 4 mps 756 mmHg 47%
    11:00 +20°C° 0 mm 5 mps 756 mmHg 45%
    12:00 +21°C° 0 mm 6 mps 756 mmHg 43%
    13:00 +21°C° 0 mm 6 mps 756 mmHg 43%
    14:00 +21°C° 0 mm 6 mps 755 mmHg 44%
    15:00 +21°C° 0 mm 6 mps 755 mmHg 45%
    16:00 +19°C° 0 mm 5 mps 755 mmHg 52%
    17:00 +17°C° 0 mm 4 mps 755 mmHg 59%
    18:00 +14°C° 0 mm 3 mps 755 mmHg 66%
    19:00 +13°C° 0 mm 3 mps 756 mmHg 67%
    20:00 +13°C° 0 mm 2 mps 756 mmHg 69%
    21:00 +13°C° 0 mm 2 mps 756 mmHg 70%
    22:00 +12°C° 0 mm 2 mps 756 mmHg 69%
    23:00 +12°C° 0 mm 2 mps 756 mmHg 69%

    Mañana, 28 Febrero, Viernes

    Tiempo Temperatura Precipitaciones Viento Presión Humedad
    00:00 +12°C° 0 mm 1 mps 756 mmHg 69%
    01:00 +12°C° 0 mm 1 mps 756 mmHg 70%
    02:00 +11°C° 0 mm 1 mps 755 mmHg 72%
    03:00 +10°C° 0 mm 0 mps 755 mmHg 73%
    04:00 +10°C° 0 mm 0 mps 755 mmHg 72%
    05:00 +11°C° 0 mm 1 mps 755 mmHg 71%
    06:00 +11°C° 0 mm 1 mps 755 mmHg 70%
    07:00 +14°C° 0 mm 1 mps 755 mmHg 61%
    08:00 +16°C° 0 mm 1 mps 755 mmHg 52%
    09:00 +20°C° 0 mm 1 mps 756 mmHg 43%
    10:00 +22°C° 0 mm 1 mps 755 mmHg 37%
    11:00 +24°C° 0 mm 1 mps 755 mmHg 31%
    12:00 +25°C° 0 mm 1 mps 755 mmHg 26%
    13:00 +26°C° 0 mm 2 mps 754 mmHg 25%
    14:00 +26°C° 0 mm 2 mps 753 mmHg 24%
    15:00 +27°C° 0 mm 2 mps 753 mmHg 24%
    16:00 +24°C° 0 mm 2 mps 753 mmHg 33%
    17:00 +20°C° 0 mm 2 mps 752 mmHg 42%
    18:00 +17°C° 0 mm 2 mps 752 mmHg 51%
    19:00 +16°C° 0 mm 2 mps 753 mmHg 53%
    20:00 +16°C° 0 mm 1 mps 753 mmHg 56%
    21:00 +15°C° 0 mm 1 mps 753 mmHg 58%
    22:00 +15°C° 0 mm 1 mps 753 mmHg 56%
    23:00 +15°C° 0 mm 2 mps 753 mmHg 53%

    Pasado mañana, 29 Febrero, Sábado

    Tiempo Temperatura Precipitaciones Viento Presión Humedad
    00:00 +14°C° 0 mm 3 mps 752 mmHg 51%
    01:00 +14°C° 0 mm 3 mps 752 mmHg 51%
    02:00 +14°C° 0 mm 3 mps 752 mmHg 52%
    03:00 +14°C° 0 mm 3 mps 751 mmHg 53%
    04:00 +13°C° 0 mm 3 mps 751 mmHg 54%
    05:00 +13°C° 0 mm 3 mps 751 mmHg 55%
    06:00 +13°C° 0 mm 4 mps 751 mmHg 56%
    07:00 +15°C° 0 mm 5 mps 752 mmHg 54%
    08:00 +16°C° 0 mm 6 mps 752 mmHg 52%
    09:00 +18°C° 0 mm 7 mps 752 mmHg 49%
    10:00 +20°C° 0 mm 8 mps 752 mmHg 46%
    11:00 +21°C° 0 mm 9 mps 752 mmHg 44%
    12:00 +22°C° 0 mm 9 mps 752 mmHg 41%
    13:00 +22°C° 0 mm 9 mps 752 mmHg 42%
    14:00 +21°C° 0 mm 9 mps 751 mmHg 43%
    15:00 +21°C° 0 mm 8 mps 751 mmHg 43%
    16:00 +20°C° 0 mm 8 mps 751 mmHg 51%
    17:00 +17°C° 0 mm 8 mps 751 mmHg 59%
    18:00 +15°C° 0 mm 8 mps 751 mmHg 66%
    19:00 +15°C° 0 mm 8 mps 752 mmHg 66%
    20:00 +15°C° 0 mm 8 mps 752 mmHg 66%
    21:00 +13°C° 0 mm 8 mps 752 mmHg 66%
    22:00 +14°C° 0 mm 7 mps 752 mmHg 65%
    23:00 +14°C° 0 mm 7 mps 752 mmHg 64%

    1 Marzo, Domingo

    Tiempo Temperatura Precipitaciones Viento Presión Humedad
    00:00 +14°C° 0 mm 7 mps 752 mmHg 63%
    01:00 +14°C° 0 mm 7 mps 752 mmHg 67%
    02:00 +13°C° 0 mm 8 mps 752 mmHg 71%
    03:00 +13°C° 0 mm 8 mps 752 mmHg 74%
    04:00 +13°C° 0 mm 8 mps 752 mmHg 77%
    05:00 +14°C° 0 mm 7 mps 752 mmHg 80%
    06:00 +14°C° 0 mm 7 mps 752 mmHg 83%
    07:00 +15°C° 0 mm 8 mps 752 mmHg 78%
    08:00 +16°C° 0 mm 8 mps 752 mmHg 73%
    09:00 +17°C° 0 mm 9 mps 753 mmHg 68%
    10:00 +18°C° 0 mm 10 mps 753 mmHg 65%
    11:00 +19°C° 0 mm 10 mps 753 mmHg 61%
    12:00 +21°C° 0 mm 11 mps 753 mmHg 58%
    13:00 +21°C° 0 mm 10 mps 752 mmHg 57%
    14:00 +19°C° 0 mm 10 mps 751 mmHg 56%
    15:00 +19°C° 0 mm 10 mps 751 mmHg 54%
    16:00 +18°C° 0 mm 9 mps 751 mmHg 61%
    17:00 +17°C° 0 mm 8 mps 751 mmHg 68%
    18:00 +16°C° 0 mm 7 mps 751 mmHg 75%
    19:00 +15°C° 0 mm 7 mps 752 mmHg 76%
    20:00 +15°C° 0 mm 6 mps 752 mmHg 76%
    21:00 +15°C° 0 mm 6 mps 752 mmHg 76%
    22:00 +15°C° 0 mm 6 mps 752 mmHg 76%
    23:00 +15°C° 0 mm 6 mps 751 mmHg 76%

    2 Marzo, Lunes

    Tiempo Temperatura Precipitaciones Viento Presión Humedad
    00:00 +15°C° 0 mm 6 mps 751 mmHg 76%
    01:00 +15°C° 0 mm 6 mps 750 mmHg 76%
    02:00 +15°C° 0 mm 7 mps 750 mmHg 76%
    03:00 +15°C° 0 mm 7 mps 750 mmHg 76%
    04:00 +14°C° 0 mm 7 mps 749 mmHg 80%
    05:00 +14°C° 0 mm 7 mps 749 mmHg 84%
    06:00 +12°C° 0 mm 7 mps 749 mmHg 89%
    07:00 +15°C° 0 mm 8 mps 749 mmHg 83%
    08:00 +16°C° 0 mm 8 mps 749 mmHg 77%
    09:00 +17°C° 0 mm 9 mps 749 mmHg 71%
    10:00 +18°C° 0 mm 11 mps 749 mmHg 66%
    11:00 +19°C° 0 mm 14 mps 749 mmHg 60%
    12:00 +19°C° 0 mm 16 mps 749 mmHg 55%
    13:00 +19°C° 0 mm 17 mps 748 mmHg 56%
    14:00 +19°C° 0 mm 17 mps 748 mmHg 57%
    15:00 +19°C° 0 mm 18 mps 747 mmHg 59%
    16:00 +18°C° 0 mm 17 mps 747 mmHg 63%
    17:00 +16°C° 0 mm 17 mps 747 mmHg 67%
    18:00 +15°C° 0 mm 16 mps 748 mmHg 71%
    19:00 +15°C° 0.2 mm 14 mps 749 mmHg 74%
    20:00 +15°C° 0.2 mm 13 mps 750 mmHg 76%
    21:00 +14°C° 0.2 mm 11 mps 751 mmHg 79%
    22:00 +13°C° 0.1 mm 9 mps 752 mmHg 75%
    23:00 +12°C° 0.1 mm 7 mps 752 mmHg 71%

    3 Marzo, Martes

    Tiempo Temperatura Precipitaciones Viento Presión Humedad
    00:00 +12°C° 0.1 mm 5 mps 753 mmHg 67%
    01:00 +12°C° 0 mm 4 mps 753 mmHg 68%
    02:00 +11°C° 0 mm 3 mps 753 mmHg 69%
    03:00 +10°C° 0 mm 3 mps 754 mmHg 69%
    04:00 +10°C° 0 mm 3 mps 754 mmHg 70%
    05:00 +10°C° 0 mm 3 mps 754 mmHg 71%
    06:00 +10°C° 0 mm 3 mps 755 mmHg 71%
    07:00 +12°C° 0 mm 4 mps 755 mmHg 67%
    08:00 +13°C° 0 mm 5 mps 755 mmHg 62%
    09:00 +15°C° 0 mm 6 mps 755 mmHg 57%
    10:00 +16°C° 0 mm 7 mps 755 mmHg 55%
    11:00 +16°C° 0 mm 9 mps 755 mmHg 53%
    12:00 +17°C° 0 mm 10 mps 755 mmHg 50%
    13:00 +17°C° 0 mm 10 mps 754 mmHg 49%
    14:00 +17°C° 0 mm 10 mps 754 mmHg 49%
    15:00 +16°C° 0 mm 10 mps 754 mmHg 48%
    16:00 +15°C° 0 mm 9 mps 754 mmHg 52%
    17:00 +13°C° 0 mm 8 mps 754 mmHg 56%
    18:00 +12°C° 0 mm 7 mps 754 mmHg 59%
    19:00 +13°C° 0 mm 6 mps 755 mmHg 59%
    20:00 +11°C° 0 mm 6 mps 755 mmHg 59%
    21:00 +12°C° 0 mm 5 mps 756 mmHg 59%
    22:00 +11°C° 0 mm 6 mps 756 mmHg 56%
    23:00 +11°C° 0 mm 6 mps 756 mmHg 52%
    Mostrar más